Orbital Elements at Epoch 2459200.5 (2020-Dec-17.0) TDB
Reference: JPL 28 (heliocentric ecliptic J2000)
Element | Value | Uncertainty (1-sigma) | Units |
e | .04521431511283412 | 4.673e-08 | |
a | 3.171439554906017 | 2.234e-08 | au |
q | 3.028045087509189 | 1.5806e-07 | au |
i | 13.45201703950193 | 3.7272e-06 | deg |
node | 235.0532453826196 | 1.8579e-05 | deg |
peri | 93.75366868552101 | 5.6649e-05 | deg |
M | 11.82724103430843 | 5.0319e-05 | deg |
tp | 2459132.725857491703 (2020-Oct-10.22585749) | 0.00028867 | TDB |
period | 2062.923316791415 5.65 | 2.1797e-05 5.968e-08 | d yr |
n | .1745096374013209 | 1.8439e-09 | deg/d |
Q | 3.314834022302844 | 2.335e-08 | au |
|
| | Orbit Determination Parameters
Additional Information
|